Location: Boiro
(42.6475°N, 8.8834°W)
Time: 10:00:08
(UTC+02:00)

NLS 7.2/CANX 5 - Visible Passes

Search period start: 26 June 2022 00:00
Search period end: 06 July 2022 00:00
Orbit: 634 x 653 km, 98.4° (Epoch: 25 June)

Date Brightness Start Highest point End Pass type
(mag) Time Alt. Az. Time Alt. Az. Time Alt. Az.
26 Jun ? 05:59:51 10° SSE 06:04:16 88° ENE 06:08:44 10° NNW visible
27 Jun ? 04:49:51 10° ESE 04:52:43 17° ENE 04:55:36 10° NNE visible
28 Jun ? 05:13:15 10° SE 05:17:03 29° ENE 05:20:52 10° N visible
29 Jun ? 05:37:11 10° SSE 05:41:27 50° ENE 05:45:47 10° N visible
30 Jun ? 04:29:34 10° ENE 04:30:10 10° ENE 04:30:45 10° NE visible
30 Jun ? 06:01:32 10° SSE 06:05:58 90° WNW 06:10:27 10° NNW visible
01 Jul ? 04:51:29 10° ESE 04:54:24 18° ENE 04:57:21 10° NNE visible
01 Jul ? 06:26:16 10° S 06:30:33 49° W 06:34:54 10° NNW visible
02 Jul ? 05:14:54 10° SE 05:18:44 29° ENE 05:22:36 10° N visible
03 Jul ? 05:38:51 10° SSE 05:43:09 51° ENE 05:47:29 10° N visible
04 Jul ? 04:30:57 10° ENE 04:31:50 11° ENE 04:32:43 10° NE visible
04 Jul ? 06:03:12 10° SSE 06:07:39 88° WSW 06:12:09 10° NNW visible
05 Jul ? 04:53:06 10° ESE 04:56:05 18° ENE 04:59:05 10° NNE visible
